#datetime,building,power
2024-03-26T00:00:00,axn,37.32
2024-03-26T00:01:00,axn,37.74
2024-03-26T00:02:00,axn,37.61
2024-03-26T00:03:00,axn,37.73
2024-03-26T00:04:00,axn,37.50
2024-03-26T00:05:00,axn,37.52
2024-03-26T00:06:00,axn,37.38
2024-03-26T00:07:00,axn,37.48
2024-03-26T00:08:00,axn,37.42
2024-03-26T00:09:00,axn,37.57
2024-03-26T00:10:00,axn,37.62
2024-03-26T00:11:00,axn,37.56
2024-03-26T00:12:00,axn,37.92
2024-03-26T00:13:00,axn,37.72
2024-03-26T00:14:00,axn,37.87
2024-03-26T00:15:00,axn,37.81
2024-03-26T00:16:00,axn,37.91
2024-03-26T00:17:00,axn,37.89
2024-03-26T00:18:00,axn,37.65
2024-03-26T00:19:00,axn,37.77
2024-03-26T00:20:00,axn,37.86
2024-03-26T00:21:00,axn,37.83
2024-03-26T00:22:00,axn,37.74
2024-03-26T00:23:00,axn,37.63
2024-03-26T00:24:00,axn,37.52
2024-03-26T00:25:00,axn,37.63
2024-03-26T00:26:00,axn,37.61
2024-03-26T00:27:00,axn,37.59
2024-03-26T00:28:00,axn,37.56
2024-03-26T00:29:00,axn,37.87
2024-03-26T00:30:00,axn,37.67
2024-03-26T00:31:00,axn,37.56
2024-03-26T00:32:00,axn,37.23
2024-03-26T00:33:00,axn,37.21
2024-03-26T00:34:00,axn,37.28
2024-03-26T00:35:00,axn,37.34
2024-03-26T00:36:00,axn,37.38
2024-03-26T00:37:00,axn,36.99
2024-03-26T00:38:00,axn,28.26
2024-03-26T00:39:00,axn,28.20
2024-03-26T00:40:00,axn,28.26
2024-03-26T00:41:00,axn,28.46
2024-03-26T00:42:00,axn,28.63
2024-03-26T00:43:00,axn,28.19
2024-03-26T00:44:00,axn,28.53
2024-03-26T00:45:00,axn,28.27
2024-03-26T00:46:00,axn,28.87
2024-03-26T00:47:00,axn,28.37
2024-03-26T00:48:00,axn,28.29
2024-03-26T00:49:00,axn,28.07
2024-03-26T00:50:00,axn,28.07
2024-03-26T00:51:00,axn,28.13
2024-03-26T00:52:00,axn,28.06
2024-03-26T00:53:00,axn,28.11
2024-03-26T00:54:00,axn,28.34
2024-03-26T00:55:00,axn,28.11
2024-03-26T00:56:00,axn,28.18
2024-03-26T00:57:00,axn,28.14
2024-03-26T00:58:00,axn,28.11
2024-03-26T00:59:00,axn,28.17
2024-03-26T01:00:00,axn,28.35
2024-03-26T01:01:00,axn,28.12
2024-03-26T01:02:00,axn,28.20
2024-03-26T01:03:00,axn,28.40
2024-03-26T01:04:00,axn,28.34
2024-03-26T01:05:00,axn,28.07
2024-03-26T01:06:00,axn,28.15
2024-03-26T01:07:00,axn,28.02
2024-03-26T01:08:00,axn,28.02
2024-03-26T01:09:00,axn,28.12
2024-03-26T01:10:00,axn,28.00
2024-03-26T01:11:00,axn,28.13
2024-03-26T01:12:00,axn,29.70
2024-03-26T01:13:00,axn,29.75
2024-03-26T01:14:00,axn,29.39
2024-03-26T01:15:00,axn,30.56
2024-03-26T01:16:00,axn,29.85
2024-03-26T01:17:00,axn,29.87
2024-03-26T01:18:00,axn,29.66
2024-03-26T01:19:00,axn,38.10
2024-03-26T01:20:00,axn,38.18
2024-03-26T01:21:00,axn,38.26
2024-03-26T01:22:00,axn,37.90
2024-03-26T01:23:00,axn,38.14
2024-03-26T01:24:00,axn,38.14
2024-03-26T01:25:00,axn,38.16
2024-03-26T01:26:00,axn,38.78
2024-03-26T01:27:00,axn,38.41
2024-03-26T01:28:00,axn,38.33
2024-03-26T01:29:00,axn,38.01
2024-03-26T01:30:00,axn,38.12
2024-03-26T01:31:00,axn,38.43
2024-03-26T01:32:00,axn,38.07
2024-03-26T01:33:00,axn,38.24
2024-03-26T01:34:00,axn,38.30
2024-03-26T01:35:00,axn,38.38
2024-03-26T01:36:00,axn,38.18
2024-03-26T01:37:00,axn,38.24
2024-03-26T01:38:00,axn,38.42
2024-03-26T01:39:00,axn,38.39
2024-03-26T01:40:00,axn,38.31
2024-03-26T01:41:00,axn,38.33
2024-03-26T01:42:00,axn,38.24
2024-03-26T01:43:00,axn,38.34
2024-03-26T01:44:00,axn,38.28
2024-03-26T01:45:00,axn,38.16
2024-03-26T01:46:00,axn,38.41
2024-03-26T01:47:00,axn,38.20
2024-03-26T01:48:00,axn,38.87
2024-03-26T01:49:00,axn,30.03
2024-03-26T01:50:00,axn,29.86
2024-03-26T01:51:00,axn,30.04
2024-03-26T01:52:00,axn,30.11
2024-03-26T01:53:00,axn,29.93
2024-03-26T01:54:00,axn,29.78
2024-03-26T01:55:00,axn,29.93
2024-03-26T01:56:00,axn,29.72
2024-03-26T01:57:00,axn,29.97
2024-03-26T01:58:00,axn,29.90
2024-03-26T01:59:00,axn,30.32
2024-03-26T02:00:00,axn,29.78
2024-03-26T02:01:00,axn,30.11
2024-03-26T02:02:00,axn,29.64
2024-03-26T02:03:00,axn,29.46
2024-03-26T02:04:00,axn,29.83
2024-03-26T02:05:00,axn,29.72
2024-03-26T02:06:00,axn,29.45
2024-03-26T02:07:00,axn,29.55
2024-03-26T02:08:00,axn,29.65
2024-03-26T02:09:00,axn,30.09
2024-03-26T02:10:00,axn,29.92
2024-03-26T02:11:00,axn,29.36
2024-03-26T02:12:00,axn,29.41
2024-03-26T02:13:00,axn,29.42
2024-03-26T02:14:00,axn,29.42
2024-03-26T02:15:00,axn,29.67
2024-03-26T02:16:00,axn,29.66
2024-03-26T02:17:00,axn,30.06
2024-03-26T02:18:00,axn,29.71
2024-03-26T02:19:00,axn,29.87
2024-03-26T02:20:00,axn,29.83
2024-03-26T02:21:00,axn,29.68
2024-03-26T02:22:00,axn,29.20
2024-03-26T02:23:00,axn,29.55
2024-03-26T02:24:00,axn,35.21
2024-03-26T02:25:00,axn,50.66
2024-03-26T02:26:00,axn,49.48
2024-03-26T02:27:00,axn,44.25
2024-03-26T02:28:00,axn,44.09
2024-03-26T02:29:00,axn,43.49
2024-03-26T02:30:00,axn,43.54
2024-03-26T02:31:00,axn,29.32
2024-03-26T02:32:00,axn,29.19
2024-03-26T02:33:00,axn,29.12
2024-03-26T02:34:00,axn,29.11
2024-03-26T02:35:00,axn,32.50
2024-03-26T02:36:00,axn,29.44
2024-03-26T02:37:00,axn,29.58
2024-03-26T02:38:00,axn,29.73
2024-03-26T02:39:00,axn,29.64
2024-03-26T02:40:00,axn,29.66
2024-03-26T02:41:00,axn,29.49
2024-03-26T02:42:00,axn,29.44
2024-03-26T02:43:00,axn,29.45
2024-03-26T02:44:00,axn,29.56
2024-03-26T02:45:00,axn,29.40
2024-03-26T02:46:00,axn,29.72
2024-03-26T02:47:00,axn,29.63
2024-03-26T02:48:00,axn,29.65
2024-03-26T02:49:00,axn,29.68
2024-03-26T02:50:00,axn,29.66
2024-03-26T02:51:00,axn,29.61
2024-03-26T02:52:00,axn,29.62
2024-03-26T02:53:00,axn,30.60
2024-03-26T02:54:00,axn,29.78
2024-03-26T02:55:00,axn,30.09
2024-03-26T02:56:00,axn,29.72
2024-03-26T02:57:00,axn,29.38
2024-03-26T02:58:00,axn,29.71
2024-03-26T02:59:00,axn,39.97
2024-03-26T03:00:00,axn,39.72
2024-03-26T03:01:00,axn,39.99
2024-03-26T03:02:00,axn,39.67
2024-03-26T03:03:00,axn,29.30
2024-03-26T03:04:00,axn,29.33
2024-03-26T03:05:00,axn,29.51
2024-03-26T03:06:00,axn,30.03
2024-03-26T03:07:00,axn,29.16
2024-03-26T03:08:00,axn,29.44
2024-03-26T03:09:00,axn,29.72
2024-03-26T03:10:00,axn,29.56
2024-03-26T03:11:00,axn,29.54
2024-03-26T03:12:00,axn,29.51
2024-03-26T03:13:00,axn,29.27
2024-03-26T03:14:00,axn,29.07
2024-03-26T03:15:00,axn,29.23
2024-03-26T03:16:00,axn,29.09
2024-03-26T03:17:00,axn,29.14
2024-03-26T03:18:00,axn,29.14
2024-03-26T03:19:00,axn,29.24
2024-03-26T03:20:00,axn,29.08
2024-03-26T03:21:00,axn,28.93
2024-03-26T03:22:00,axn,29.09
2024-03-26T03:23:00,axn,29.09
2024-03-26T03:24:00,axn,29.03
2024-03-26T03:25:00,axn,29.19
2024-03-26T03:26:00,axn,29.20
2024-03-26T03:27:00,axn,29.00
2024-03-26T03:28:00,axn,29.29
2024-03-26T03:29:00,axn,29.13
2024-03-26T03:30:00,axn,29.36
2024-03-26T03:31:00,axn,29.27
2024-03-26T03:32:00,axn,29.35
2024-03-26T03:33:00,axn,29.68
2024-03-26T03:34:00,axn,29.25
2024-03-26T03:35:00,axn,29.32
2024-03-26T03:36:00,axn,29.19
2024-03-26T03:37:00,axn,29.33
2024-03-26T03:38:00,axn,29.36
2024-03-26T03:39:00,axn,29.33
2024-03-26T03:40:00,axn,29.10
2024-03-26T03:41:00,axn,29.06
2024-03-26T03:42:00,axn,29.26
2024-03-26T03:43:00,axn,28.99
2024-03-26T03:44:00,axn,29.34
2024-03-26T03:45:00,axn,29.21
2024-03-26T03:46:00,axn,29.14
2024-03-26T03:47:00,axn,29.07
2024-03-26T03:48:00,axn,29.04
2024-03-26T03:49:00,axn,29.07
2024-03-26T03:50:00,axn,29.17
2024-03-26T03:51:00,axn,28.98
2024-03-26T03:52:00,axn,28.97
2024-03-26T03:53:00,axn,28.99
2024-03-26T03:54:00,axn,34.44
2024-03-26T03:55:00,axn,29.16
2024-03-26T03:56:00,axn,29.06
2024-03-26T03:57:00,axn,29.42
2024-03-26T03:58:00,axn,29.03
2024-03-26T03:59:00,axn,28.89
2024-03-26T04:00:00,axn,28.98
2024-03-26T04:01:00,axn,28.96
2024-03-26T04:02:00,axn,28.90
2024-03-26T04:03:00,axn,28.97
2024-03-26T04:04:00,axn,28.75
2024-03-26T04:05:00,axn,28.86
2024-03-26T04:06:00,axn,29.04
2024-03-26T04:07:00,axn,28.92
2024-03-26T04:08:00,axn,29.22
2024-03-26T04:09:00,axn,28.80
2024-03-26T04:10:00,axn,28.70
2024-03-26T04:11:00,axn,28.56
2024-03-26T04:12:00,axn,30.34
2024-03-26T04:13:00,axn,28.81
2024-03-26T04:14:00,axn,28.93
2024-03-26T04:15:00,axn,28.96
2024-03-26T04:16:00,axn,28.98
2024-03-26T04:17:00,axn,28.74
2024-03-26T04:18:00,axn,29.16
2024-03-26T04:19:00,axn,29.25
2024-03-26T04:20:00,axn,30.14
2024-03-26T04:21:00,axn,29.76
2024-03-26T04:22:00,axn,29.65
2024-03-26T04:23:00,axn,29.48
2024-03-26T04:24:00,axn,29.68
2024-03-26T04:25:00,axn,29.59
2024-03-26T04:26:00,axn,29.71
2024-03-26T04:27:00,axn,29.55
2024-03-26T04:28:00,axn,30.09
2024-03-26T04:29:00,axn,29.64
2024-03-26T04:30:00,axn,29.57
2024-03-26T04:31:00,axn,29.70
2024-03-26T04:32:00,axn,29.51
2024-03-26T04:33:00,axn,29.61
2024-03-26T04:34:00,axn,29.40
2024-03-26T04:35:00,axn,29.73
2024-03-26T04:36:00,axn,29.60
2024-03-26T04:37:00,axn,29.70
2024-03-26T04:38:00,axn,29.64
2024-03-26T04:39:00,axn,29.55
2024-03-26T04:40:00,axn,29.57
2024-03-26T04:41:00,axn,29.52
2024-03-26T04:42:00,axn,29.50
2024-03-26T04:43:00,axn,29.36
2024-03-26T04:44:00,axn,29.45
2024-03-26T04:45:00,axn,29.74
2024-03-26T04:46:00,axn,29.83
2024-03-26T04:47:00,axn,30.11
2024-03-26T04:48:00,axn,39.63
2024-03-26T04:49:00,axn,38.77
2024-03-26T04:50:00,axn,39.33
2024-03-26T04:51:00,axn,39.12
2024-03-26T04:52:00,axn,39.30
2024-03-26T04:53:00,axn,39.21
2024-03-26T04:54:00,axn,40.63
2024-03-26T04:55:00,axn,39.36
2024-03-26T04:56:00,axn,39.51
2024-03-26T04:57:00,axn,39.26
2024-03-26T04:58:00,axn,39.41
2024-03-26T04:59:00,axn,57.06
2024-03-26T05:00:00,axn,38.87
2024-03-26T05:01:00,axn,33.94
2024-03-26T05:02:00,axn,38.87
2024-03-26T05:03:00,axn,38.38
2024-03-26T05:04:00,axn,38.44
2024-03-26T05:05:00,axn,39.72
2024-03-26T05:06:00,axn,38.70
2024-03-26T05:07:00,axn,45.53
2024-03-26T05:08:00,axn,45.31
2024-03-26T05:09:00,axn,45.00
2024-03-26T05:10:00,axn,38.99
2024-03-26T05:11:00,axn,38.85
2024-03-26T05:12:00,axn,34.41
2024-03-26T05:13:00,axn,34.27
2024-03-26T05:14:00,axn,34.25
2024-03-26T05:15:00,axn,34.19
2024-03-26T05:16:00,axn,34.55
2024-03-26T05:17:00,axn,35.09
2024-03-26T05:18:00,axn,34.88
2024-03-26T05:19:00,axn,35.33
2024-03-26T05:20:00,axn,35.22
2024-03-26T05:21:00,axn,35.26
2024-03-26T05:22:00,axn,27.18
2024-03-26T05:23:00,axn,27.16
2024-03-26T05:24:00,axn,28.96
2024-03-26T05:25:00,axn,29.35
2024-03-26T05:26:00,axn,29.60
2024-03-26T05:27:00,axn,29.66
2024-03-26T05:28:00,axn,29.66
2024-03-26T05:29:00,axn,29.71
2024-03-26T05:30:00,axn,34.37
2024-03-26T05:31:00,axn,30.37
2024-03-26T05:32:00,axn,30.29
2024-03-26T05:33:00,axn,30.38
2024-03-26T05:34:00,axn,30.28
2024-03-26T05:35:00,axn,30.31
2024-03-26T05:36:00,axn,30.43
2024-03-26T05:37:00,axn,30.34
2024-03-26T05:38:00,axn,30.41
2024-03-26T05:39:00,axn,30.83
2024-03-26T05:40:00,axn,30.55
2024-03-26T05:41:00,axn,30.68
2024-03-26T05:42:00,axn,30.40
2024-03-26T05:43:00,axn,30.47
2024-03-26T05:44:00,axn,30.66
2024-03-26T05:45:00,axn,30.54
2024-03-26T05:46:00,axn,30.46
2024-03-26T05:47:00,axn,30.60
2024-03-26T05:48:00,axn,30.95
2024-03-26T05:49:00,axn,30.48
2024-03-26T05:50:00,axn,31.61
2024-03-26T05:51:00,axn,30.32
2024-03-26T05:52:00,axn,33.12
2024-03-26T05:53:00,axn,33.06
2024-03-26T05:54:00,axn,30.07
2024-03-26T05:55:00,axn,29.98
2024-03-26T05:56:00,axn,29.91
2024-03-26T05:57:00,axn,30.05
2024-03-26T05:58:00,axn,44.45
2024-03-26T05:59:00,axn,30.21
2024-03-26T06:00:00,axn,34.14
2024-03-26T06:01:00,axn,34.16
2024-03-26T06:02:00,axn,29.44
2024-03-26T06:03:00,axn,29.15
2024-03-26T06:04:00,axn,29.25
2024-03-26T06:05:00,axn,30.10
2024-03-26T06:06:00,axn,30.00
2024-03-26T06:07:00,axn,29.95
2024-03-26T06:08:00,axn,30.18
2024-03-26T06:09:00,axn,30.13
2024-03-26T06:10:00,axn,29.92
2024-03-26T06:11:00,axn,29.84
2024-03-26T06:12:00,axn,29.82
2024-03-26T06:13:00,axn,29.65
2024-03-26T06:14:00,axn,29.81
2024-03-26T06:15:00,axn,29.75
2024-03-26T06:16:00,axn,29.04
2024-03-26T06:17:00,axn,28.96
2024-03-26T06:18:00,axn,28.91
2024-03-26T06:19:00,axn,29.35
2024-03-26T06:20:00,axn,28.99
2024-03-26T06:21:00,axn,28.99
2024-03-26T06:22:00,axn,29.06
2024-03-26T06:23:00,axn,29.04
2024-03-26T06:24:00,axn,28.78
2024-03-26T06:25:00,axn,29.27
2024-03-26T06:26:00,axn,28.87
2024-03-26T06:27:00,axn,29.33
2024-03-26T06:28:00,axn,29.50
2024-03-26T06:29:00,axn,29.55
2024-03-26T06:30:00,axn,29.95
2024-03-26T06:31:00,axn,29.59
2024-03-26T06:32:00,axn,33.87
2024-03-26T06:33:00,axn,33.66
2024-03-26T06:34:00,axn,29.03
2024-03-26T06:35:00,axn,29.61
2024-03-26T06:36:00,axn,29.16
2024-03-26T06:37:00,axn,29.25
2024-03-26T06:38:00,axn,29.34
2024-03-26T06:39:00,axn,29.00
2024-03-26T06:40:00,axn,29.06
2024-03-26T06:41:00,axn,28.73
2024-03-26T06:42:00,axn,28.86
2024-03-26T06:43:00,axn,28.99
2024-03-26T06:44:00,axn,28.88
2024-03-26T06:45:00,axn,28.98
2024-03-26T06:46:00,axn,29.36
2024-03-26T06:47:00,axn,29.54
2024-03-26T06:48:00,axn,29.14
2024-03-26T06:49:00,axn,29.09
2024-03-26T06:50:00,axn,28.97
2024-03-26T06:51:00,axn,28.78
2024-03-26T06:52:00,axn,28.75
2024-03-26T06:53:00,axn,28.76
2024-03-26T06:54:00,axn,28.67
2024-03-26T06:55:00,axn,28.73
2024-03-26T06:56:00,axn,28.66
2024-03-26T06:57:00,axn,28.73
2024-03-26T06:58:00,axn,28.78
2024-03-26T06:59:00,axn,28.62
2024-03-26T07:00:00,axn,28.49
2024-03-26T07:01:00,axn,32.12
2024-03-26T07:02:00,axn,34.65
2024-03-26T07:03:00,axn,34.68
2024-03-26T07:04:00,axn,37.99
2024-03-26T07:05:00,axn,40.34
2024-03-26T07:06:00,axn,41.34
2024-03-26T07:07:00,axn,39.87
2024-03-26T07:08:00,axn,32.37
2024-03-26T07:09:00,axn,32.48
2024-03-26T07:10:00,axn,34.46
2024-03-26T07:11:00,axn,34.38
2024-03-26T07:12:00,axn,34.70
2024-03-26T07:13:00,axn,34.54
2024-03-26T07:14:00,axn,35.13
2024-03-26T07:15:00,axn,34.02
2024-03-26T07:16:00,axn,48.11
2024-03-26T07:17:00,axn,48.48
2024-03-26T07:18:00,axn,35.02
2024-03-26T07:19:00,axn,48.50
2024-03-26T07:20:00,axn,48.66
2024-03-26T07:21:00,axn,48.81
2024-03-26T07:22:00,axn,49.55
2024-03-26T07:23:00,axn,36.02
2024-03-26T07:24:00,axn,35.37
2024-03-26T07:25:00,axn,35.23
2024-03-26T07:26:00,axn,35.34
2024-03-26T07:27:00,axn,35.17
2024-03-26T07:28:00,axn,35.88
2024-03-26T07:29:00,axn,49.25
2024-03-26T07:30:00,axn,35.44
2024-03-26T07:31:00,axn,36.07
2024-03-26T07:32:00,axn,35.79
2024-03-26T07:33:00,axn,35.86
2024-03-26T07:34:00,axn,35.75
2024-03-26T07:35:00,axn,35.99
2024-03-26T07:36:00,axn,40.31
2024-03-26T07:37:00,axn,36.67
2024-03-26T07:38:00,axn,36.43
2024-03-26T07:39:00,axn,36.28
2024-03-26T07:40:00,axn,37.21
2024-03-26T07:41:00,axn,36.82
2024-03-26T07:42:00,axn,37.04
2024-03-26T07:43:00,axn,36.84
2024-03-26T07:44:00,axn,36.91
2024-03-26T07:45:00,axn,36.83
2024-03-26T07:46:00,axn,37.53
2024-03-26T07:47:00,axn,37.17
2024-03-26T07:48:00,axn,39.45
2024-03-26T07:49:00,axn,40.97
2024-03-26T07:50:00,axn,41.19
2024-03-26T07:51:00,axn,41.18
2024-03-26T07:52:00,axn,41.09
2024-03-26T07:53:00,axn,41.96
2024-03-26T07:54:00,axn,41.30
2024-03-26T07:55:00,axn,40.84
2024-03-26T07:56:00,axn,41.05
2024-03-26T07:57:00,axn,40.72
2024-03-26T07:58:00,axn,41.23
2024-03-26T07:59:00,axn,40.73
2024-03-26T08:00:00,axn,40.77
2024-03-26T08:01:00,axn,42.91
2024-03-26T08:02:00,axn,42.13
2024-03-26T08:03:00,axn,42.02
2024-03-26T08:04:00,axn,42.24
2024-03-26T08:05:00,axn,41.34
2024-03-26T08:06:00,axn,45.93
2024-03-26T08:07:00,axn,45.90
2024-03-26T08:08:00,axn,42.07
2024-03-26T08:09:00,axn,42.12
2024-03-26T08:10:00,axn,41.60
2024-03-26T08:11:00,axn,42.50
2024-03-26T08:12:00,axn,42.11
2024-03-26T08:13:00,axn,41.83
2024-03-26T08:14:00,axn,42.69
2024-03-26T08:15:00,axn,44.30
2024-03-26T08:16:00,axn,43.59
2024-03-26T08:17:00,axn,43.43
2024-03-26T08:18:00,axn,43.29
2024-03-26T08:19:00,axn,43.02
2024-03-26T08:20:00,axn,42.57
2024-03-26T08:21:00,axn,43.74
2024-03-26T08:22:00,axn,43.14
2024-03-26T08:23:00,axn,43.22
2024-03-26T08:24:00,axn,42.91
2024-03-26T08:25:00,axn,42.05
2024-03-26T08:26:00,axn,43.12
2024-03-26T08:27:00,axn,43.21
2024-03-26T08:28:00,axn,42.65
2024-03-26T08:29:00,axn,43.34
2024-03-26T08:30:00,axn,42.76
2024-03-26T08:31:00,axn,53.10
2024-03-26T08:32:00,axn,52.97
2024-03-26T08:33:00,axn,57.37
2024-03-26T08:34:00,axn,52.83
2024-03-26T08:35:00,axn,42.97
2024-03-26T08:36:00,axn,42.50
2024-03-26T08:37:00,axn,42.19
2024-03-26T08:38:00,axn,42.58
2024-03-26T08:39:00,axn,41.97
2024-03-26T08:40:00,axn,42.04
2024-03-26T08:41:00,axn,42.19
2024-03-26T08:42:00,axn,42.29
2024-03-26T08:43:00,axn,42.48
2024-03-26T08:44:00,axn,42.64
2024-03-26T08:45:00,axn,42.31
2024-03-26T08:46:00,axn,42.35
2024-03-26T08:47:00,axn,42.63
2024-03-26T08:48:00,axn,42.46
2024-03-26T08:49:00,axn,42.30
2024-03-26T08:50:00,axn,42.10
2024-03-26T08:51:00,axn,42.34
2024-03-26T08:52:00,axn,42.39
2024-03-26T08:53:00,axn,43.00
2024-03-26T08:54:00,axn,43.59
2024-03-26T08:55:00,axn,42.02
2024-03-26T08:56:00,axn,42.41
2024-03-26T08:57:00,axn,42.76
2024-03-26T08:58:00,axn,42.70
2024-03-26T08:59:00,axn,44.20
2024-03-26T09:00:00,axn,43.40
2024-03-26T09:01:00,axn,43.80
2024-03-26T09:02:00,axn,43.51
2024-03-26T09:03:00,axn,47.73
2024-03-26T09:04:00,axn,47.52
2024-03-26T09:05:00,axn,57.61
2024-03-26T09:06:00,axn,42.47
2024-03-26T09:07:00,axn,44.15
2024-03-26T09:08:00,axn,43.38
2024-03-26T09:09:00,axn,43.42
2024-03-26T09:10:00,axn,47.23
2024-03-26T09:11:00,axn,45.31
2024-03-26T09:12:00,axn,44.50
2024-03-26T09:13:00,axn,45.60
2024-03-26T09:14:00,axn,44.70
2024-03-26T09:15:00,axn,44.98
2024-03-26T09:16:00,axn,45.16
2024-03-26T09:17:00,axn,43.65
2024-03-26T09:18:00,axn,43.80
2024-03-26T09:19:00,axn,43.41
2024-03-26T09:20:00,axn,43.63
2024-03-26T09:21:00,axn,43.78
2024-03-26T09:22:00,axn,48.62
2024-03-26T09:23:00,axn,47.86
2024-03-26T09:24:00,axn,48.68
2024-03-26T09:25:00,axn,48.14
2024-03-26T09:26:00,axn,49.36
2024-03-26T09:27:00,axn,48.94
2024-03-26T09:28:00,axn,48.47
2024-03-26T09:29:00,axn,49.10
2024-03-26T09:30:00,axn,44.08
2024-03-26T09:31:00,axn,44.92
2024-03-26T09:32:00,axn,44.61
2024-03-26T09:33:00,axn,44.16
2024-03-26T09:34:00,axn,44.44
2024-03-26T09:35:00,axn,44.31
2024-03-26T09:36:00,axn,44.76
2024-03-26T09:37:00,axn,44.51
2024-03-26T09:38:00,axn,44.31
2024-03-26T09:39:00,axn,44.50
2024-03-26T09:40:00,axn,45.91
2024-03-26T09:41:00,axn,44.44
2024-03-26T09:42:00,axn,44.44
2024-03-26T09:43:00,axn,44.38
2024-03-26T09:44:00,axn,44.01
2024-03-26T09:45:00,axn,43.62
2024-03-26T09:46:00,axn,44.05
2024-03-26T09:47:00,axn,44.08
2024-03-26T09:48:00,axn,44.25
2024-03-26T09:49:00,axn,43.74
2024-03-26T09:50:00,axn,42.72
2024-03-26T09:51:00,axn,43.03
2024-03-26T09:52:00,axn,42.80
2024-03-26T09:53:00,axn,42.92
2024-03-26T09:54:00,axn,47.35
2024-03-26T09:55:00,axn,47.56
2024-03-26T09:56:00,axn,43.23
2024-03-26T09:57:00,axn,43.67
2024-03-26T09:58:00,axn,43.62
2024-03-26T09:59:00,axn,43.05
2024-03-26T10:00:00,axn,42.92
2024-03-26T10:01:00,axn,43.91
2024-03-26T10:02:00,axn,43.46
2024-03-26T10:03:00,axn,42.92
2024-03-26T10:04:00,axn,44.01
2024-03-26T10:05:00,axn,43.69
2024-03-26T10:06:00,axn,43.34
2024-03-26T10:07:00,axn,42.29
2024-03-26T10:08:00,axn,42.90
2024-03-26T10:09:00,axn,43.86
2024-03-26T10:10:00,axn,42.76
2024-03-26T10:11:00,axn,42.63
2024-03-26T10:12:00,axn,42.61
2024-03-26T10:13:00,axn,42.40
2024-03-26T10:14:00,axn,43.07
2024-03-26T10:15:00,axn,42.76
2024-03-26T10:16:00,axn,43.26
2024-03-26T10:17:00,axn,43.17
2024-03-26T10:18:00,axn,43.10
2024-03-26T10:19:00,axn,61.98
2024-03-26T10:20:00,axn,61.75
2024-03-26T10:21:00,axn,57.16
2024-03-26T10:22:00,axn,56.81
2024-03-26T10:23:00,axn,56.75
2024-03-26T10:24:00,axn,42.82
2024-03-26T10:25:00,axn,42.86
2024-03-26T10:26:00,axn,43.16
2024-03-26T10:27:00,axn,43.48
2024-03-26T10:28:00,axn,42.19
2024-03-26T10:29:00,axn,42.61
2024-03-26T10:30:00,axn,42.50
2024-03-26T10:31:00,axn,43.05
2024-03-26T10:32:00,axn,43.03
2024-03-26T10:33:00,axn,42.53
2024-03-26T10:34:00,axn,42.34
2024-03-26T10:35:00,axn,42.89
2024-03-26T10:36:00,axn,42.62
2024-03-26T10:37:00,axn,42.84
2024-03-26T10:38:00,axn,43.39
2024-03-26T10:39:00,axn,43.01
2024-03-26T10:40:00,axn,43.02
2024-03-26T10:41:00,axn,42.93
2024-03-26T10:42:00,axn,44.65
2024-03-26T10:43:00,axn,43.47
2024-03-26T10:44:00,axn,43.62
2024-03-26T10:45:00,axn,43.57
2024-03-26T10:46:00,axn,43.41
2024-03-26T10:47:00,axn,43.23
2024-03-26T10:48:00,axn,48.15
2024-03-26T10:49:00,axn,44.14
2024-03-26T10:50:00,axn,44.68
2024-03-26T10:51:00,axn,44.19
2024-03-26T10:52:00,axn,44.30
2024-03-26T10:53:00,axn,43.48
2024-03-26T10:54:00,axn,43.52
2024-03-26T10:55:00,axn,43.15
2024-03-26T10:56:00,axn,43.00
2024-03-26T10:57:00,axn,43.71
2024-03-26T10:58:00,axn,43.43
2024-03-26T10:59:00,axn,43.54
2024-03-26T11:00:00,axn,43.77
2024-03-26T11:01:00,axn,43.87
2024-03-26T11:02:00,axn,43.02
2024-03-26T11:03:00,axn,43.18
2024-03-26T11:04:00,axn,44.16
2024-03-26T11:05:00,axn,43.47
2024-03-26T11:06:00,axn,43.15
2024-03-26T11:07:00,axn,43.92
2024-03-26T11:08:00,axn,43.10
2024-03-26T11:09:00,axn,42.66
2024-03-26T11:10:00,axn,42.94
2024-03-26T11:11:00,axn,43.88
2024-03-26T11:12:00,axn,43.22
2024-03-26T11:13:00,axn,47.65
2024-03-26T11:14:00,axn,47.67
2024-03-26T11:15:00,axn,43.52
2024-03-26T11:16:00,axn,42.76
2024-03-26T11:17:00,axn,43.56
2024-03-26T11:18:00,axn,43.15
2024-03-26T11:19:00,axn,42.62
2024-03-26T11:20:00,axn,41.91
2024-03-26T11:21:00,axn,41.81
2024-03-26T11:22:00,axn,41.90
2024-03-26T11:23:00,axn,42.20
2024-03-26T11:24:00,axn,41.56
2024-03-26T11:25:00,axn,42.19
2024-03-26T11:26:00,axn,42.14
2024-03-26T11:27:00,axn,41.46
2024-03-26T11:28:00,axn,41.98
2024-03-26T11:29:00,axn,41.90
2024-03-26T11:30:00,axn,43.03
2024-03-26T11:31:00,axn,42.22
2024-03-26T11:32:00,axn,42.12
2024-03-26T11:33:00,axn,49.70
2024-03-26T11:34:00,axn,50.59
2024-03-26T11:35:00,axn,50.03
2024-03-26T11:36:00,axn,50.29
2024-03-26T11:37:00,axn,59.08
2024-03-26T11:38:00,axn,59.36
2024-03-26T11:39:00,axn,56.02
2024-03-26T11:40:00,axn,56.28
2024-03-26T11:41:00,axn,50.09
2024-03-26T11:42:00,axn,50.45
2024-03-26T11:43:00,axn,50.10
2024-03-26T11:44:00,axn,54.71
2024-03-26T11:45:00,axn,49.82
2024-03-26T11:46:00,axn,50.49
2024-03-26T11:47:00,axn,50.28
2024-03-26T11:48:00,axn,50.09
2024-03-26T11:49:00,axn,50.95
2024-03-26T11:50:00,axn,49.90
2024-03-26T11:51:00,axn,49.40
2024-03-26T11:52:00,axn,50.24
2024-03-26T11:53:00,axn,48.93
2024-03-26T11:54:00,axn,48.58
2024-03-26T11:55:00,axn,49.15
2024-03-26T11:56:00,axn,48.86
2024-03-26T11:57:00,axn,49.80
2024-03-26T11:58:00,axn,49.66
2024-03-26T11:59:00,axn,50.00
2024-03-26T12:00:00,axn,49.74
2024-03-26T12:01:00,axn,49.36
2024-03-26T12:02:00,axn,49.98
2024-03-26T12:03:00,axn,49.43
2024-03-26T12:04:00,axn,49.86
2024-03-26T12:05:00,axn,49.46
2024-03-26T12:06:00,axn,49.11
2024-03-26T12:07:00,axn,49.19
2024-03-26T12:08:00,axn,49.26
2024-03-26T12:09:00,axn,49.09
2024-03-26T12:10:00,axn,49.24
2024-03-26T12:11:00,axn,49.11
2024-03-26T12:12:00,axn,49.02
2024-03-26T12:13:00,axn,48.99
2024-03-26T12:14:00,axn,52.11
2024-03-26T12:15:00,axn,55.65
2024-03-26T12:16:00,axn,49.49
2024-03-26T12:17:00,axn,49.51
2024-03-26T12:18:00,axn,49.97
2024-03-26T12:19:00,axn,50.21
2024-03-26T12:20:00,axn,49.10
2024-03-26T12:21:00,axn,49.58
2024-03-26T12:22:00,axn,49.95
2024-03-26T12:23:00,axn,49.85
2024-03-26T12:24:00,axn,50.10
2024-03-26T12:25:00,axn,49.97
2024-03-26T12:26:00,axn,49.73
2024-03-26T12:27:00,axn,50.26
2024-03-26T12:28:00,axn,50.04
2024-03-26T12:29:00,axn,50.60
2024-03-26T12:30:00,axn,50.85
2024-03-26T12:31:00,axn,50.62
2024-03-26T12:32:00,axn,49.98
2024-03-26T12:33:00,axn,49.92
2024-03-26T12:34:00,axn,50.30
2024-03-26T12:35:00,axn,49.58
2024-03-26T12:36:00,axn,49.67
2024-03-26T12:37:00,axn,50.29
2024-03-26T12:38:00,axn,51.17
2024-03-26T12:39:00,axn,50.33
2024-03-26T12:40:00,axn,69.49
2024-03-26T12:41:00,axn,55.67
2024-03-26T12:42:00,axn,55.52
2024-03-26T12:43:00,axn,50.93
2024-03-26T12:44:00,axn,51.08
2024-03-26T12:45:00,axn,51.08
2024-03-26T12:46:00,axn,51.69
2024-03-26T12:47:00,axn,62.03
2024-03-26T12:48:00,axn,62.12
2024-03-26T12:49:00,axn,61.83
2024-03-26T12:50:00,axn,61.86
2024-03-26T12:51:00,axn,51.33
2024-03-26T12:52:00,axn,51.37
2024-03-26T12:53:00,axn,72.73
2024-03-26T12:54:00,axn,52.46
2024-03-26T12:55:00,axn,53.27
2024-03-26T12:56:00,axn,52.14
2024-03-26T12:57:00,axn,51.79
2024-03-26T12:58:00,axn,52.24
2024-03-26T12:59:00,axn,52.33
2024-03-26T13:00:00,axn,56.05
2024-03-26T13:01:00,axn,55.86
2024-03-26T13:02:00,axn,51.25
2024-03-26T13:03:00,axn,51.63
2024-03-26T13:04:00,axn,51.83
2024-03-26T13:05:00,axn,51.46
2024-03-26T13:06:00,axn,51.06
2024-03-26T13:07:00,axn,51.59
2024-03-26T13:08:00,axn,51.50
2024-03-26T13:09:00,axn,51.14
2024-03-26T13:10:00,axn,51.34
2024-03-26T13:11:00,axn,50.77
2024-03-26T13:12:00,axn,50.80
2024-03-26T13:13:00,axn,50.56
2024-03-26T13:14:00,axn,51.98
2024-03-26T13:15:00,axn,50.50
2024-03-26T13:16:00,axn,50.37
2024-03-26T13:17:00,axn,50.47
2024-03-26T13:18:00,axn,51.25